Погода в Чердаклах

Россия / Ульяновская область     54°21′38″N   48°50′56″E
темп.,
°C
ветер,
м/с
пор.,
м/с
влажн.,
%
обл.,
%
осадки,
мм/ч
давл.,
гПа
погр.,
м
28 января, чт
чт2801:00−4ююв71390100 0.0 1021518
04:00−4ююв71291100 0.0 1020487
07:00−6ююв71291100 0.0 1019382
10:00−7ююв71291100 0.0 1019339
13:00−6ююв71192100 0.0 1019419
16:00−6ююв61192100 0.0 1018403
19:00−7ююв61293100 0.0 1017343
22:00−8ююв6119399 0.0 1017336
29 января, пт
пт2901:00−8ююв51094100 0.0 1016335
04:00−8юв4995100 0.1 1015258
07:00−7юв5994100 0.1 1013320
10:00−6юв5994100 0.1 1013361
13:00−4ююв5993100 0.1 1012456
16:00−4ююв4795100 0.1 1010365
19:00−5ююв4996100 0.1 1010261
22:00−4ююв4797100 0.8 1008257
30 января, сб
сб3001:00−3ю3695100 0.9 1008224
04:00−5ююв349399 0.9 100754
07:00−7ююв459339 0.0 100683
10:00−7ююв489443 0.0 1006189
13:00−2ю61091100 0.0 1005546
16:00−1ю81489100 0.1 1004789
19:00−1юз6138172 0.1 1005398
22:00−4юз5118786 0.1 1008235
31 января, вс
вс3101:00−6ююз4788100 0.0 1010139
04:00−4ююв4789100 0.0 1010181
07:00+1ю71399100 0.4 1009518
10:00−1ю71486100 0.5 1009507
13:000ююв91679100 0.0 1009636
16:00−1ююв112076100 0.0 1007808
19:00−1ююв132375100 0.0 1003868
22:00−1ю132191100 0.5 1001990
1 февраля, пн
пн101:00+1ююз91793100 0.8 10021186
04:00−4ююз6168456 0.8 1004723
07:00−5юз6158585 0.0 1008599
10:00−6юз5138775 0.0 1012551
13:00−5зюз5118665 0.0 1015657
16:00−6юз348945 0.0 101771
19:00−7ю349052 0.0 102066
22:00−7ююв479176 0.0 1020128